Location: Ferintosh
(52.7647°N, 112.9692°W)
Time: 18:54:11
(UTC+00:00)

S-56A Canister/Altair - Pass Details

Date: 28 May 2024
Orbit: 637 x 2489 km, 38.9° (Epoch: 22 June)

Event Time Altitude Azimuth Distance (km) Brightness Sun altitude
Rises 09:34:31 0° 185° (S) 6,146 - -10.8°
Exits shadow 09:36:37 - 179° (S) 5,791 11.5 -10.7°
Reaches altitude 10° 09:41:17 10° 165° (SSE) 5,105 11.3 -10.3°
Maximum altitude 09:48:00 15° 138° (SE) 4,540 11.3 -9.8°
Drops below altitude 10° 09:54:13 10° 109° (ESE) 4,678 11.7 -9.3°
Sets 09:59:47 0° 89° (E) 5,351 12.4 -8.8°
